Location: Unspecified
(42.9300°N, 71.1866°W)
Time: 02:48:14
(UTC-04:00)

Envisat - Visible Passes

Search period start: 20 August 2014 00:00
Search period end: 30 August 2014 00:00
Orbit: 765 x 767 km, 98.4° (Epoch: 19 August)

Date Brightness Start Highest point End Pass type
(mag) Time Alt. Az. Time Alt. Az. Time Alt. Az.
20 Aug 5.0 20:19:52 10° ENE 20:21:35 12° ENE 20:23:19 10° NE visible
20 Aug 2.9 21:58:38 55° SSE 21:59:47 84° ENE 22:04:53 10° NNW visible
20 Aug 5.5 23:38:51 11° W 23:39:26 12° W 23:41:06 10° WNW visible
21 Aug 3.6 21:21:45 31° ESE 21:23:23 39° ENE 21:28:05 10° N visible
21 Aug 4.6 23:01:59 25° WSW 23:02:29 26° W 23:06:42 10° NW visible
22 Aug 4.5 20:44:53 15° E 20:47:11 20° ENE 20:50:44 10° NNE visible
22 Aug 3.4 22:25:06 52° SW 22:25:45 56° W 22:30:46 10° NNW visible
23 Aug 3.0 21:48:14 54° SE 21:49:13 68° ENE 21:54:16 10° N visible
23 Aug 5.3 23:28:27 15° W 23:28:43 15° W 23:31:32 10° NW visible
24 Aug 3.9 21:11:22 27° E 21:12:53 32° ENE 21:17:20 10° N visible
24 Aug 4.3 22:51:35 32° WSW 22:51:50 32° W 22:56:22 10° NNW visible
25 Aug 4.8 20:34:30 12° E 20:36:44 16° ENE 20:39:44 10° NNE visible
25 Aug 3.0 22:14:43 66° SW 22:15:09 71° WSW 22:20:14 10° NNW visible
26 Aug 3.1 21:37:51 48° ESE 21:38:41 54° ENE 21:43:38 10° N visible
26 Aug 5.1 23:18:05 19° W 23:18:05 19° W 23:21:32 10° NW visible
27 Aug 4.1 21:00:59 23° E 21:02:23 26° ENE 21:06:33 10° N visible
27 Aug 3.9 22:41:13 40° W 22:41:13 40° W 22:45:58 10° NNW visible
28 Aug 4.9 20:24:07 10° E 20:26:18 13° ENE 20:28:33 10° NNE visible
28 Aug 2.8 22:04:21 82° S 22:04:34 87° WSW 22:09:41 10° NNW visible
29 Aug 3.4 21:27:29 41° E 21:28:09 43° ENE 21:32:56 10° N visible
29 Aug 4.9 23:07:42 23° W 23:07:42 23° W 23:11:21 10° NW visible
